timestamp,wind_dir_avg,wind_spd_avg,wind_spd_max_dir,wind_spd_gust,battery_voltage,lat,long
2019-12-06 00:04:01+00:00,273.0,4.55,273.0,5.08,12.57,47.59359,-54.27349
2019-12-06 00:14:01+00:00,281.0,3.51,282.0,4.83,12.57,47.59359,-54.27349
2019-12-06 00:24:01+00:00,281.0,3.82,278.0,4.52,12.57,47.59359,-54.27349
2019-12-06 00:34:01+00:00,271.0,3.86,273.0,4.77,12.57,47.59359,-54.27349
2019-12-06 00:44:01+00:00,263.0,6.57,263.0,7.18,12.57,47.59359,-54.27349
2019-12-06 00:54:01+00:00,277.0,4.98,279.0,5.75,12.57,47.59359,-54.27349
2019-12-06 01:04:01+00:00,282.0,3.83,290.0,4.97,12.57,47.59359,-54.27349
2019-12-06 01:14:01+00:00,272.0,4.5,276.0,5.72,12.57,47.59359,-54.27349
2019-12-06 01:24:01+00:00,267.0,4.38,271.0,5.29,12.57,47.59359,-54.27349
2019-12-06 01:34:01+00:00,258.0,4.61,264.0,5.52,12.57,47.59359,-54.27349
2019-12-06 01:44:01+00:00,247.0,2.88,238.0,3.55,12.57,47.59359,-54.27349
2019-12-06 01:54:01+00:00,246.0,3.23,244.0,3.7,12.57,47.59359,-54.27349
2019-12-06 02:04:01+00:00,240.0,3.01,239.0,3.41,12.57,47.59359,-54.27349
2019-12-06 02:14:01+00:00,242.0,3.54,245.0,3.88,12.49,47.59359,-54.27349
2019-12-06 02:24:01+00:00,256.0,3.38,254.0,3.79,12.49,47.59359,-54.27349
2019-12-06 02:34:01+00:00,260.0,3.29,264.0,4.54,12.49,47.59359,-54.27349
2019-12-06 02:44:01+00:00,265.0,3.27,260.0,3.82,12.49,47.59359,-54.27349
2019-12-06 02:54:01+00:00,314.0,2.81,317.0,3.29,12.49,47.59359,-54.27349
2019-12-06 03:04:01+00:00,290.0,2.81,293.0,3.18,12.49,47.59359,-54.27349
2019-12-06 03:14:01+00:00,300.0,3.52,301.0,3.99,12.49,47.59359,-54.27349
2019-12-06 03:24:01+00:00,297.0,3.08,299.0,3.4,12.49,47.59359,-54.27349
2019-12-06 03:34:01+00:00,280.0,3.37,280.0,3.86,12.49,47.59359,-54.27349
2019-12-06 03:44:01+00:00,269.0,4.11,269.0,4.53,12.49,47.59359,-54.27349
2019-12-06 03:54:01+00:00,256.0,3.38,257.0,4.04,12.49,47.59359,-54.27349
2019-12-06 04:04:01+00:00,251.0,3.08,255.0,3.67,12.49,47.59359,-54.27349
2019-12-06 04:14:01+00:00,284.0,2.82,284.0,3.33,12.49,47.59359,-54.27349
2019-12-06 04:24:01+00:00,289.0,3.58,289.0,3.91,12.49,47.59359,-54.27349
2019-12-06 04:34:01+00:00,286.0,3.76,284.0,4.17,12.49,47.59359,-54.27349
2019-12-06 04:44:01+00:00,282.0,2.86,288.0,3.26,12.49,47.59359,-54.27349
2019-12-06 04:54:01+00:00,290.0,3.47,283.0,4.4,12.49,47.59359,-54.27349
2019-12-06 05:04:01+00:00,279.0,4.93,283.0,5.43,12.49,47.59359,-54.27349
2019-12-06 05:14:01+00:00,301.0,4.57,308.0,5.39,12.41,47.59359,-54.27349
2019-12-06 05:24:01+00:00,303.0,3.86,301.0,4.26,12.41,47.59359,-54.27349
2019-12-06 05:34:01+00:00,310.0,3.36,310.0,3.74,12.41,47.59359,-54.27349
2019-12-06 05:44:01+00:00,300.0,3.14,301.0,3.66,12.41,47.59359,-54.27349
2019-12-06 05:54:01+00:00,273.0,1.67,272.0,2.22,12.41,47.59359,-54.27349
2019-12-06 06:04:01+00:00,285.0,1.5,288.0,1.88,12.41,47.59359,-54.27349
2019-12-06 06:14:01+00:00,290.0,2.39,290.0,2.83,12.41,47.59359,-54.27349
2019-12-06 06:24:01+00:00,292.0,3.34,281.0,4.13,12.41,47.59359,-54.27349
2019-12-06 06:34:01+00:00,286.0,2.69,295.0,3.48,12.41,47.59359,-54.27349
2019-12-06 06:44:01+00:00,270.0,2.88,273.0,3.35,12.41,47.59359,-54.27349
2019-12-06 06:54:01+00:00,250.0,2.66,251.0,3.34,12.41,47.59359,-54.27349
2019-12-06 07:04:01+00:00,218.0,2.93,217.0,3.27,12.41,47.59359,-54.27349
2019-12-06 07:14:01+00:00,228.0,3.55,226.0,3.96,12.41,47.59359,-54.27349
2019-12-06 07:24:01+00:00,233.0,3.36,236.0,3.72,12.41,47.59359,-54.27349
2019-12-06 07:34:01+00:00,235.0,3.03,229.0,3.87,12.41,47.59359,-54.27349
2019-12-06 07:44:01+00:00,235.0,2.85,236.0,3.34,12.41,47.59359,-54.27349
2019-12-06 07:54:01+00:00,232.0,2.79,231.0,3.22,12.41,47.59359,-54.27349
2019-12-06 08:04:01+00:00,231.0,3.06,234.0,3.35,12.41,47.59359,-54.27349
2019-12-06 08:14:01+00:00,225.0,3.62,224.0,3.99,12.41,47.59359,-54.27349
2019-12-06 08:24:01+00:00,236.0,3.91,240.0,4.43,12.41,47.59359,-54.27349
2019-12-06 08:34:01+00:00,241.0,4.02,242.0,4.54,12.41,47.59359,-54.27349
2019-12-06 08:44:01+00:00,243.0,4.11,249.0,4.62,12.41,47.59359,-54.27349
2019-12-06 08:54:01+00:00,255.0,4.42,260.0,5.04,12.41,47.59359,-54.27349
2019-12-06 09:04:01+00:00,255.0,4.29,257.0,4.96,12.41,47.59359,-54.27349
2019-12-06 09:14:01+00:00,251.0,5.24,249.0,6.06,12.41,47.59359,-54.27349
2019-12-06 09:24:01+00:00,241.0,3.49,247.0,4.08,12.41,47.59359,-54.27349
2019-12-06 09:34:01+00:00,251.0,4.68,246.0,5.69,12.41,47.59359,-54.27349
2019-12-06 09:44:01+00:00,252.0,5.02,257.0,5.68,12.41,47.59359,-54.27349
2019-12-06 09:54:01+00:00,261.0,5.32,260.0,5.71,12.41,47.59359,-54.27349
2019-12-06 10:04:01+00:00,270.0,5.61,270.0,6.18,12.41,47.59359,-54.27349
2019-12-06 10:14:01+00:00,272.0,5.5,274.0,5.84,12.41,47.59359,-54.27349
2019-12-06 10:24:01+00:00,276.0,5.73,282.0,6.49,12.41,47.59359,-54.27349
2019-12-06 10:34:01+00:00,273.0,5.23,272.0,5.89,12.41,47.59359,-54.27349
2019-12-06 10:44:01+00:00,289.0,5.31,288.0,5.75,12.41,47.59359,-54.27349
2019-12-06 10:54:01+00:00,287.0,4.49,287.0,5.04,12.41,47.59359,-54.27349
2019-12-06 11:04:01+00:00,281.0,4.98,280.0,5.67,12.41,47.59359,-54.27349
2019-12-06 11:14:01+00:00,281.0,4.45,279.0,5.09,12.33,47.59359,-54.27349
2019-12-06 11:24:01+00:00,290.0,3.99,294.0,5.08,12.33,47.59359,-54.27349
2019-12-06 11:34:01+00:00,293.0,4.06,277.0,5.15,12.33,47.59359,-54.27349
2019-12-06 11:44:01+00:00,286.0,4.24,287.0,4.98,12.33,47.59359,-54.27349
2019-12-06 11:54:01+00:00,270.0,3.92,267.0,4.58,12.33,47.59359,-54.27349
2019-12-06 12:04:01+00:00,300.0,3.02,307.0,3.92,12.33,47.59359,-54.27349
2019-12-06 12:14:01+00:00,281.0,4.22,277.0,4.64,12.41,47.59359,-54.27349
2019-12-06 12:24:01+00:00,289.0,4.11,296.0,4.81,12.41,47.59359,-54.27349
2019-12-06 12:34:01+00:00,274.0,3.52,272.0,3.82,12.41,47.59359,-54.27349
2019-12-06 12:44:01+00:00,277.0,5.41,276.0,6.29,12.41,47.59359,-54.27349
2019-12-06 12:54:01+00:00,275.0,4.95,272.0,5.62,12.41,47.59359,-54.27349
2019-12-06 13:04:01+00:00,279.0,5.31,277.0,6.79,12.41,47.59359,-54.27349
2019-12-06 13:14:01+00:00,267.0,5.15,271.0,5.56,12.73,47.59359,-54.27349
2019-12-06 13:24:01+00:00,271.0,5.39,271.0,5.91,12.73,47.59359,-54.27349
2019-12-06 13:34:01+00:00,274.0,5.37,271.0,6.09,12.73,47.59359,-54.27349
2019-12-06 13:44:01+00:00,267.0,4.86,267.0,6.02,12.73,47.59359,-54.27349
2019-12-06 13:54:01+00:00,281.0,5.43,278.0,6.78,12.73,47.59359,-54.27349
2019-12-06 14:04:01+00:00,271.0,5.08,270.0,5.99,12.73,47.59359,-54.27349
2019-12-06 14:14:01+00:00,262.0,5.38,274.0,5.9,13.37,47.59359,-54.27349
2019-12-06 14:24:01+00:00,263.0,5.91,265.0,7.35,13.37,47.59359,-54.27349
2019-12-06 14:34:01+00:00,254.0,6.49,251.0,7.3,13.37,47.59359,-54.27349
2019-12-06 14:44:01+00:00,252.0,6.1,254.0,6.83,13.37,47.59359,-54.27349
2019-12-06 14:54:01+00:00,259.0,6.32,260.0,7.29,13.37,47.59359,-54.27349
2019-12-06 15:04:01+00:00,252.0,6.58,252.0,7.66,13.37,47.59359,-54.27349
2019-12-06 15:14:01+00:00,264.0,6.41,268.0,7.51,13.37,47.59359,-54.27349
2019-12-06 15:24:01+00:00,262.0,6.71,259.0,7.82,13.37,47.59359,-54.27349
2019-12-06 15:34:01+00:00,263.0,6.19,260.0,8.35,13.37,47.59359,-54.27349
2019-12-06 15:44:01+00:00,270.0,7.13,272.0,8.02,13.37,47.59359,-54.27349
2019-12-06 15:54:01+00:00,264.0,7.58,263.0,8.6,13.37,47.59359,-54.27349
2019-12-06 16:04:01+00:00,274.0,6.17,272.0,7.08,13.37,47.59359,-54.27349
2019-12-06 16:14:01+00:00,259.0,6.02,261.0,7.23,13.21,47.59359,-54.27349
2019-12-06 16:24:01+00:00,264.0,5.93,259.0,7.06,13.21,47.59359,-54.27349
2019-12-06 16:34:01+00:00,266.0,6.96,267.0,8.3,13.21,47.59359,-54.27349
2019-12-06 16:44:01+00:00,270.0,7.86,278.0,9.02,13.21,47.59359,-54.27349
2019-12-06 16:54:01+00:00,275.0,6.58,273.0,7.38,13.21,47.59359,-54.27349
2019-12-06 17:04:01+00:00,278.0,6.99,279.0,7.9,13.21,47.59359,-54.27349
2019-12-06 17:14:01+00:00,268.0,7.7,265.0,8.99,13.6,47.59359,-54.27349
2019-12-06 17:24:01+00:00,270.0,8.15,273.0,9.2,13.6,47.59359,-54.27349
2019-12-06 17:34:01+00:00,277.0,7.97,285.0,8.99,13.6,47.59359,-54.27349
2019-12-06 17:44:01+00:00,271.0,7.58,271.0,8.9,13.6,47.59359,-54.27349
2019-12-06 17:54:01+00:00,274.0,9.35,284.0,10.33,13.6,47.59359,-54.27349
2019-12-06 18:04:01+00:00,281.0,8.62,287.0,9.78,13.6,47.59359,-54.27349
2019-12-06 18:14:01+00:00,280.0,10.24,280.0,12.04,13.44,47.59359,-54.27349
2019-12-06 18:24:01+00:00,276.0,9.37,270.0,10.41,13.44,47.59359,-54.27349
2019-12-06 18:34:01+00:00,268.0,10.03,270.0,11.01,13.44,47.59359,-54.27349
2019-12-06 18:44:01+00:00,274.0,9.32,278.0,10.16,13.44,47.59359,-54.27349
2019-12-06 18:54:01+00:00,281.0,9.13,282.0,9.61,13.44,47.59359,-54.27349
2019-12-06 19:04:01+00:00,272.0,8.48,267.0,9.57,13.44,47.59359,-54.27349
2019-12-06 19:14:01+00:00,273.0,8.42,275.0,9.87,12.97,47.59359,-54.27349
2019-12-06 19:24:01+00:00,282.0,8.78,282.0,10.1,12.97,47.59359,-54.27349
2019-12-06 19:34:01+00:00,269.0,6.45,269.0,7.51,12.97,47.59359,-54.27349
2019-12-06 19:44:01+00:00,275.0,7.5,276.0,8.64,12.97,47.59359,-54.27349
2019-12-06 19:54:01+00:00,269.0,10.23,267.0,13.03,12.97,47.59359,-54.27349
2019-12-06 20:04:01+00:00,275.0,7.45,275.0,8.16,12.97,47.59359,-54.27349
2019-12-06 20:14:01+00:00,265.0,7.36,270.0,8.38,12.73,47.59359,-54.27349
2019-12-06 20:24:01+00:00,270.0,8.01,268.0,9.3,12.73,47.59359,-54.27349
2019-12-06 20:34:01+00:00,259.0,7.94,260.0,9.35,12.73,47.59359,-54.27349
2019-12-06 20:44:01+00:00,270.0,7.57,271.0,9.29,12.73,47.59359,-54.27349
2019-12-06 20:54:01+00:00,271.0,6.83,260.0,8.18,12.73,47.59359,-54.27349
2019-12-06 21:04:01+00:00,273.0,8.35,269.0,9.58,12.73,47.59359,-54.27349
2019-12-06 21:14:01+00:00,272.0,7.68,272.0,8.52,12.65,47.59359,-54.27349
2019-12-06 21:24:01+00:00,270.0,8.59,265.0,9.96,12.65,47.59359,-54.27349
2019-12-06 21:34:01+00:00,269.0,9.48,273.0,10.6,12.65,47.59359,-54.27349
2019-12-06 21:44:01+00:00,257.0,8.67,254.0,9.7,12.65,47.59359,-54.27349
2019-12-06 21:54:01+00:00,257.0,8.71,261.0,10.43,12.65,47.59359,-54.27349
2019-12-06 22:04:01+00:00,262.0,9.28,261.0,10.64,12.65,47.59359,-54.27349
2019-12-06 22:14:01+00:00,277.0,7.37,277.0,8.3,12.65,47.59359,-54.27349
2019-12-06 22:24:01+00:00,271.0,8.32,266.0,9.16,12.65,47.59359,-54.27349
2019-12-06 22:34:01+00:00,257.0,9.77,261.0,11.0,12.65,47.59359,-54.27349
2019-12-06 22:44:01+00:00,261.0,9.16,266.0,10.03,12.65,47.59359,-54.27349
2019-12-06 22:54:01+00:00,254.0,8.37,256.0,9.43,12.65,47.59359,-54.27349
2019-12-06 23:04:01+00:00,253.0,9.84,251.0,11.54,12.65,47.59359,-54.27349
2019-12-06 23:14:01+00:00,259.0,11.47,261.0,12.98,12.65,47.59359,-54.27349
2019-12-06 23:24:01+00:00,267.0,9.97,267.0,10.95,12.65,47.59359,-54.27349
2019-12-06 23:34:01+00:00,264.0,9.35,265.0,10.72,12.65,47.59359,-54.27349
2019-12-06 23:44:01+00:00,263.0,9.57,265.0,11.08,12.65,47.59359,-54.27349
2019-12-06 23:54:01+00:00,268.0,11.33,272.0,13.02,12.65,47.59359,-54.27349
